Location: *
(49.4547°N, 7.9131°E)
Time: 13:08:35
(UTC+00:00)

DMSP B5D2-2 - Pass Details

Date: 22 September 2019
Orbit: 791 x 805 km, 98.4° (Epoch: 16 October)

Event Time Altitude Azimuth Distance (km) Brightness Sun altitude
Rises 19:48:43 0° 17° (NNE) 3,334 7.5 -22.8°
Reaches altitude 10° 19:51:07 10° 21° (NNE) 2,399 6.7 -23.2°
Enters shadow 19:56:01 56° 85° (E) 955 4.1 -23.8°
